Regional Weather Roundup
Issued by NWS

Home | Current Version | Previous Version | Text Only | Print | Product List | Glossary On
Versions: 1 2 3 4 5 6 7 8 9 10 11 12 13 14 15 16 17 18 19 20 21 22 23 24 25 26 27 28 29 30 31 32 33 34 35 36 37 38 39 40 41 42 43 44 45 46 47 48 49 50
000
ASUS46 KPQR 030910
RWROR

OREGON REGIONAL WEATHER ROUNDUP
NATIONAL WEATHER SERVICE PORTLAND OR
200 AM PDT TUE MAY 03 2016

NOTE: "FAIR" INDICATES FEW OR NO CLOUDS BELOW 12,000 FEET WITH
NO SIGNIFICANT WEATHER AND/OR OBSTRUCTIONS TO VISIBILITY.

ORZ001>013-031000-
NORTHWEST OREGON


CITY           SKY/WX    TMP DP  RH WIND       PRES   REMARKS
ASTORIA        CLOUDY    56  53  90 SW7       30.02F FOG
NEWPORT        DRIZZLE   54  52  94 S3        30.08F
PORTLAND       MOCLDY    60  48  64 CALM      30.01R
VANCOUVER WA   MOCLDY    59  49  69 CALM      30.00R
SCAPPOOSE      MOCLDY    53  49  86 CALM      29.99R
HILLSBORO      CLOUDY    61  49  64 CALM      29.99R
AURORA         CLOUDY    57  49  74 S6        30.02R
MCMINNVILLE    CLOUDY    56  50  80 SW9       30.01R
SALEM          CLOUDY    59  47  64 SW3       30.01R
CORVALLIS        N/A     54  48  82 NW12      30.04F
EUGENE         MOCLDY    53  48  83 SW8       30.04S
$$

ORZ021-028-031000-
SOUTHWEST OREGON


CITY           SKY/WX    TMP DP  RH WIND       PRES   REMARKS
NORTH BEND     CLOUDY    55  52  88 CALM      30.08F
ROSEBURG       CLOUDY    56  48  74 CALM      30.02F
SEXTON SUMMIT  MOCLDY    53  32  44 SW9       30.07F
MEDFORD        MOCLDY    58  45  62 S6        30.03S
$$

ORZ014>016-041-031000-
COLUMBIA GORGE


CITY           SKY/WX    TMP DP  RH WIND       PRES   REMARKS
TROUTDALE      MOCLDY    60  47  61 CALM      30.00R
THE DALLES     PTCLDY    68  42  38 NW10      29.92R
$$

ORZ029>031-041-044-049-050-061>064-502-503-505>511-031000-
EASTERN OREGON


CITY           SKY/WX    TMP DP  RH WIND       PRES   REMARKS
REDMOND        MOCLDY    48  34  58 CALM      30.04S
BEND           CLEAR     52  36  54 CALM      30.05S
PRINEVILLE     CLEAR     46  32  57 CALM      30.05S
KLAMATH FALLS  CLOUDY    51  39  63 S7        30.11S
LAKEVIEW       CLEAR     36  30  80 N7        30.16S WCI  30
HERMISTON      CLEAR     54  37  52 E9        29.93S
PENDLETON      CLEAR     60  28  29 SE6       29.97S
JOHN DAY       CLEAR     53  27  36 E7        30.10S
MEACHAM        CLEAR     38  31  76 CALM      30.10S
LA GRANDE      CLEAR     45  27  49 N7        30.09S
BAKER CITY     CLEAR     35  31  85 VRB3      30.13S
BURNS          CLEAR     38  29  70 W5        30.12S WCI  34
ROME             N/A     46  32  58 S6        30.11S
ONTARIO        CLEAR     47  36  65 CALM      30.10F
$$



USA.gov is the U.S. government's official web portal to all federal, state and local government web resources and services.